GW6222 Weather Reports


time (UTC)temp
C
wind
direction
speed
KPH
gust
KPH
rain 1hr
cm
rain 24hr
cm
rain mn
cm
humidity
%
barometer
mb
20260507143050 8 0 0.0 1.6 0.00 0.00 0.00 52 1012.8
20260507141557 10 240 0.0 1.6 0.00 0.00 0.00 53 1012.8
20260507140059 10 145 0.0 4.8 0.00 0.00 0.00 57 1012.8
20260507134600 10 13 0.0 3.2 0.00 0.00 0.00 59 1012.8
20260507133052 10 0 0.0 3.2 0.00 0.00 0.00 59 1012.7
20260507131550 10 0 0.0 1.6 0.00 0.00 0.00 60 1012.6
20260507130053 10 227 0.0 1.6 0.00 0.00 0.00 59 1012.6
20260507124552 9 319 0.0 1.6 0.00 0.00 0.00 58 1012.5
20260507123055 9 223 0.0 1.6 0.00 0.00 0.00 57 1012.5
20260507121552 8 0 0.0 1.6 0.00 0.00 0.00 59 1012.5
20260507120050 8 0 0.0 1.6 0.00 0.00 0.00 61 1012.2
20260507114552 7 0 0.0 0.0 0.00 0.00 0.00 63 1012.1
20260507113053 6 0 0.0 0.0 0.00 0.00 0.00 70 1012.0
20260507111559 3 0 0.0 0.0 0.00 0.00 0.00 78 1011.9
20260507110049 0 0 0.0 0.0 0.00 0.00 0.00 84 1011.6
20260507104551 0 0 0.0 0.0 0.00 0.00 0.00 80 1011.6
20260507103049 0 0 0.0 0.0 0.00 0.00 0.00 82 1011.5
20260507101601 1 0 0.0 0.0 0.00 0.00 0.00 79 1011.5
20260507100048 1 0 0.0 0.0 0.00 0.00 0.00 77 1011.5
20260507094550 2 0 0.0 0.0 0.00 0.00 0.00 77 1011.5
20260507093054 2 0 0.0 0.0 0.00 0.00 0.00 74 1011.4
20260507091545 2 0 0.0 1.6 0.00 0.00 0.00 75 1011.6
20260507090044 2 0 0.0 0.0 0.00 0.00 0.00 75 1011.5
20260507084548 2 0 0.0 1.6 0.00 0.00 0.00 77 1011.7
20260507083047 3 0 0.0 0.0 0.00 0.00 0.00 73 1011.7
20260507081551 3 0 0.0 0.0 0.00 0.00 0.00 71 1011.8
20260507080052 3 0 0.0 0.0 0.00 0.00 0.00 70 1011.9
20260507074557 3 0 0.0 0.0 0.00 0.00 0.00 71 1011.9
20260507073049 3 0 0.0 0.0 0.00 0.00 0.00 69 1011.9
20260507071553 3 0 0.0 0.0 0.00 0.00 0.00 70 1012.0
20260507070051 3 0 0.0 0.0 0.00 0.00 0.00 69 1012.1
20260507064606 4 0 0.0 0.0 0.00 0.00 0.00 69 1012.3
20260507063054 4 0 0.0 0.0 0.00 0.00 0.00 68 1012.2
20260507061553 5 0 0.0 0.0 0.00 0.00 0.00 68 1012.2
20260507060050 5 0 0.0 0.0 0.00 0.00 0.00 69 1012.3
20260507054557 5 0 0.0 1.6 0.00 0.00 0.00 67 1012.4
20260507053058 5 0 0.0 1.6 0.00 0.00 0.00 70 1012.4
20260507051558 5 0 0.0 1.6 0.00 0.00 0.00 66 1012.4
20260507044555 5 0 0.0 0.0 0.00 0.00 0.00 61 1012.5
20260507043047 5 0 0.0 0.0 0.00 0.00 0.00 63 1012.6
20260507041600 5 0 0.0 0.0 0.00 0.00 0.00 64 1012.6
20260507040056 5 0 0.0 0.0 0.00 0.00 0.00 64 1012.7
20260507034557 5 0 0.0 1.6 0.00 0.00 0.00 65 1012.5
20260507033053 5 0 0.0 0.0 0.00 0.00 0.00 65 1012.8
20260507031558 6 0 0.0 0.0 0.00 0.00 0.00 60 1012.7
20260507030058 6 0 0.0 0.0 0.00 0.00 0.00 59 1012.7
20260507024553 6 0 0.0 0.0 0.00 0.00 0.00 58 1012.7
20260507023127 6 0 0.0 0.0 0.00 0.00 0.00 60 1012.6
20260507021553 6 0 0.0 0.0 0.00 0.00 0.00 59 1012.5
20260507020051 6 0 0.0 0.0 0.00 0.00 0.00 58 1012.4
20260507014604 7 0 0.0 0.0 0.00 0.00 0.00 58 1012.4
20260507013107 7 0 0.0 1.6 0.00 0.00 0.00 57 1012.3
20260507011551 7 0 0.0 0.0 0.00 0.00 0.00 58 1012.2
20260507010052 7 0 0.0 0.0 0.00 0.00 0.00 56 1012.2
20260507004554 7 0 0.0 1.6 0.00 0.00 0.00 56 1012.0
20260507003052 8 0 0.0 0.0 0.00 0.00 0.00 56 1011.8
20260507001607 8 0 0.0 0.0 0.00 0.00 0.00 53 1011.5
20260507000052 9 0 0.0 0.0 0.00 0.00 0.00 50 1011.5
20260506234558 10 0 0.0 1.6 0.00 0.00 0.00 48 1011.4
20260506233102 10 296 0.0 1.6 0.00 0.00 0.00 47 1011.4
20260506231549 11 265 0.0 1.6 0.00 0.00 0.00 44 1011.3
20260506230049 11 0 0.0 1.6 0.00 0.00 0.00 45 1011.2
20260506224547 11 0 0.0 1.6 0.00 0.00 0.00 43 1011.3
20260506223105 11 232 0.0 3.2 0.00 0.00 0.00 45 1011.3
20260506221549 12 0 0.0 3.2 0.00 0.00 0.00 42 1011.2
20260506220049 11 0 0.0 1.6 0.00 0.00 0.00 44 1011.2
20260506214604 11 0 0.0 1.6 0.00 0.00 0.00 42 1011.2
20260506213048 11 42 0.0 1.6 0.00 0.00 0.00 42 1011.1
20260506211548 12 0 0.0 1.6 0.00 0.00 0.00 41 1011.2
20260506210052 12 39 0.0 3.2 0.00 0.00 0.00 40 1011.2
20260506204555 11 348 0.0 1.6 0.00 0.00 0.00 41 1011.3
20260506203100 12 0 0.0 1.6 0.00 0.00 0.00 43 1011.3
20260506201552 12 0 0.0 1.6 0.00 0.00 0.00 40 1011.4
20260506200125 12 38 0.0 1.6 0.00 0.00 0.00 39 1011.5
20260506194558 12 262 0.0 3.2 0.00 0.00 0.00 40 1011.6
20260506193051 12 59 0.0 4.8 0.00 0.00 0.00 42 1011.7
20260506191549 12 31 0.0 1.6 0.00 0.00 0.00 41 1011.6
20260506190049 12 0 0.0 3.2 0.00 0.00 0.00 40 1011.6
20260506184553 12 254 0.0 4.8 0.00 0.00 0.00 41 1011.6
20260506183053 12 235 0.0 3.2 0.00 0.00 0.00 42 1011.5
20260506181548 12 0 0.0 1.6 0.00 0.00 0.00 40 1011.6
20260506174553 11 15 0.0 6.4 0.00 0.00 0.00 42 1011.8
20260506173106 11 336 0.0 1.6 0.00 0.00 0.00 42 1011.9
20260506171600 11 0 0.0 1.6 0.00 0.00 0.00 42 1012.0
20260506170049 11 22 0.0 4.8 0.00 0.00 0.00 43 1012.1
20260506164551 12 232 0.0 3.2 0.00 0.00 0.00 41 1012.0
20260506163058 12 313 0.0 3.2 0.00 0.00 0.00 42 1011.9
20260506161555 12 295 0.0 3.2 0.00 0.00 0.00 40 1012.3
20260506160107 11 0 0.0 3.2 0.00 0.00 0.00 41 1012.1
20260506154549 11 34 0.0 3.2 0.00 0.00 0.00 43 1012.1
20260506153052 11 256 0.0 4.8 0.00 0.00 0.00 45 1012.3
20260506151554 11 0 1.6 4.8 0.00 0.00 0.00 45 1012.1
20260506150055 10 279 0.0 3.2 0.00 0.00 0.00 46 1012.1
20260506144553 8 92 0.0 3.2 0.00 0.00 0.00 54 1012.0